Location: Unspecified
(17.6330°N, 0.0000°E)
Time: 21:03:12
(UTC+00:00)

S-56A Canister/Altair - Pass Details

Date: 27 June 2019
Orbit: 632 x 2500 km, 38.9° (Epoch: 17 July)

Event Time Altitude Azimuth Distance (km) Brightness Sun altitude
Rises 19:08:10 0° 316° (NW) 3,997 12.8 -7.2°
Reaches altitude 10° 19:12:03 10° 332° (NNW) 2,711 11.3 -8.0°
Maximum altitude 19:16:35 21° 19° (NNE) 1,748 9.5 -9.0°
Drops below altitude 10° 19:20:17 10° 69° (ENE) 2,162 9.5 -9.7°
Enters shadow 19:21:29 - 78° (ENE) 2,495 9.7 -10.0°
Sets 19:22:57 0° 87° (E) 2,970 - -10.3°
